Year,Month,Day,Hour,Minute,Value (Times are PST for temperature in C)
2010,05,25,00,00,9.70
2010,05,25,00,01,9.70
2010,05,25,00,02,9.80
2010,05,25,00,03,9.80
2010,05,25,00,04,9.80
2010,05,25,00,05,9.80
2010,05,25,00,06,9.80
2010,05,25,00,07,9.80
2010,05,25,00,08,9.80
2010,05,25,00,09,9.80
2010,05,25,00,10,9.80
2010,05,25,00,11,9.80
2010,05,25,00,12,9.80
2010,05,25,00,13,9.80
2010,05,25,00,14,9.80
2010,05,25,00,15,9.90
2010,05,25,00,16,9.90
2010,05,25,00,17,9.90
2010,05,25,00,18,9.90
2010,05,25,00,19,9.90
2010,05,25,00,20,9.90
2010,05,25,00,21,10.00
2010,05,25,00,22,10.00
2010,05,25,00,23,10.00
2010,05,25,00,24,10.00
2010,05,25,00,25,10.00
2010,05,25,00,26,10.00
2010,05,25,00,27,10.00
2010,05,25,00,28,10.00
2010,05,25,00,29,10.00
2010,05,25,00,30,10.00
2010,05,25,00,31,9.90
2010,05,25,00,32,10.00
2010,05,25,00,33,9.90
2010,05,25,00,34,9.90
2010,05,25,00,35,9.90
2010,05,25,00,36,9.90
2010,05,25,00,37,9.90
2010,05,25,00,38,9.90
2010,05,25,00,39,9.90
2010,05,25,00,40,9.90
2010,05,25,00,41,9.90
2010,05,25,00,42,9.90
2010,05,25,00,43,9.90
2010,05,25,00,44,9.90
2010,05,25,00,45,9.90
2010,05,25,00,46,9.90
2010,05,25,00,47,9.90
2010,05,25,00,48,9.90
2010,05,25,00,49,9.90
2010,05,25,00,50,9.90
2010,05,25,00,51,9.90
2010,05,25,00,52,9.90
2010,05,25,00,53,9.90
2010,05,25,00,54,9.90
2010,05,25,00,55,9.90
2010,05,25,00,56,9.90
2010,05,25,00,57,9.90
2010,05,25,00,58,9.90
2010,05,25,00,59,9.90
2010,05,25,01,00,9.90
2010,05,25,01,01,9.90
2010,05,25,01,02,9.90
2010,05,25,01,03,9.90
2010,05,25,01,04,9.90
2010,05,25,01,05,9.90
2010,05,25,01,06,9.90
2010,05,25,01,07,9.90
2010,05,25,01,08,9.90
2010,05,25,01,09,9.90
2010,05,25,01,10,9.90
2010,05,25,01,11,9.90
2010,05,25,01,12,9.90
2010,05,25,01,13,9.90
2010,05,25,01,14,9.90
2010,05,25,01,15,9.90
2010,05,25,01,16,9.90
2010,05,25,01,17,9.90
2010,05,25,01,18,9.90
2010,05,25,01,19,9.90
2010,05,25,01,20,9.90
2010,05,25,01,21,9.90
2010,05,25,01,22,9.90
2010,05,25,01,23,9.80
2010,05,25,01,24,9.80
2010,05,25,01,25,9.80
2010,05,25,01,26,9.80
2010,05,25,01,27,9.80
2010,05,25,01,28,9.80
2010,05,25,01,29,9.80
2010,05,25,01,30,9.80
2010,05,25,01,31,9.80
2010,05,25,01,32,9.80
2010,05,25,01,33,9.90
2010,05,25,01,34,9.90
2010,05,25,01,35,9.90
2010,05,25,01,36,9.90
2010,05,25,01,37,9.90
2010,05,25,01,38,9.80
2010,05,25,01,39,9.80
2010,05,25,01,40,9.80
2010,05,25,01,41,9.80
2010,05,25,01,42,9.80
2010,05,25,01,43,9.80
2010,05,25,01,44,9.80
2010,05,25,01,45,9.80
2010,05,25,01,46,9.80
2010,05,25,01,47,9.80
2010,05,25,01,48,9.80
2010,05,25,01,49,9.80
2010,05,25,01,50,9.80
2010,05,25,01,51,9.80
2010,05,25,01,52,9.80
2010,05,25,01,53,9.80
2010,05,25,01,54,9.80
2010,05,25,01,55,9.80
2010,05,25,01,56,9.80
2010,05,25,01,57,9.80
2010,05,25,01,58,9.80
2010,05,25,01,59,9.80
2010,05,25,02,00,9.80
2010,05,25,02,01,9.80
2010,05,25,02,02,9.80
2010,05,25,02,03,9.80
2010,05,25,02,04,9.80
2010,05,25,02,05,9.80
2010,05,25,02,06,9.80
2010,05,25,02,07,9.80
2010,05,25,02,08,9.80
2010,05,25,02,09,9.80
2010,05,25,02,10,9.70
2010,05,25,02,11,9.70
2010,05,25,02,12,9.70
2010,05,25,02,13,9.70
2010,05,25,02,14,9.70
2010,05,25,02,15,9.70
2010,05,25,02,16,9.70
2010,05,25,02,17,9.70
2010,05,25,02,18,9.70
2010,05,25,02,19,9.70
2010,05,25,02,20,9.70
2010,05,25,02,21,9.70
2010,05,25,02,22,9.70
2010,05,25,02,23,9.70
2010,05,25,02,24,9.70
2010,05,25,02,25,9.70
2010,05,25,02,26,9.70
2010,05,25,02,27,9.70
2010,05,25,02,28,9.70
2010,05,25,02,29,9.70
2010,05,25,02,30,9.70
2010,05,25,02,31,9.70
2010,05,25,02,32,9.70
2010,05,25,02,33,9.70
2010,05,25,02,34,9.70
2010,05,25,02,35,9.70
2010,05,25,02,36,9.70
2010,05,25,02,37,9.70
2010,05,25,02,38,9.70
2010,05,25,02,39,9.70
2010,05,25,02,40,9.70
2010,05,25,02,41,9.70
2010,05,25,02,42,9.70
2010,05,25,02,43,9.70
2010,05,25,02,44,9.70
2010,05,25,02,45,9.70
2010,05,25,02,46,9.70
2010,05,25,02,47,9.70
2010,05,25,02,48,9.70
2010,05,25,02,49,9.70
2010,05,25,02,50,9.70
2010,05,25,02,51,9.70
2010,05,25,02,52,9.70
2010,05,25,02,53,9.70
2010,05,25,02,54,9.70
2010,05,25,02,55,9.70
2010,05,25,02,56,9.70
2010,05,25,02,57,9.70
2010,05,25,02,58,9.70
2010,05,25,02,59,9.70
2010,05,25,03,00,9.70
2010,05,25,03,01,9.70
2010,05,25,03,02,9.70
2010,05,25,03,03,9.70
2010,05,25,03,04,9.70
2010,05,25,03,05,9.70
2010,05,25,03,06,9.70
2010,05,25,03,07,9.70
2010,05,25,03,08,9.70
2010,05,25,03,09,9.70
2010,05,25,03,10,9.70
2010,05,25,03,11,9.70
2010,05,25,03,12,9.70
2010,05,25,03,13,9.70
2010,05,25,03,14,9.70
2010,05,25,03,15,9.70
2010,05,25,03,16,9.70
2010,05,25,03,17,9.70
2010,05,25,03,18,9.70
2010,05,25,03,19,9.70
2010,05,25,03,20,9.70
2010,05,25,03,21,9.70
2010,05,25,03,22,9.70
2010,05,25,03,23,9.70
2010,05,25,03,24,9.60
2010,05,25,03,25,9.60
2010,05,25,03,26,9.60
2010,05,25,03,27,9.60
2010,05,25,03,28,9.60
2010,05,25,03,29,9.60
2010,05,25,03,30,9.60
2010,05,25,03,31,9.60
2010,05,25,03,32,9.60
2010,05,25,03,33,9.60
2010,05,25,03,34,9.60
2010,05,25,03,35,9.60
2010,05,25,03,36,9.60
2010,05,25,03,37,9.60
2010,05,25,03,38,9.60
2010,05,25,03,39,9.60
2010,05,25,03,40,9.60
2010,05,25,03,41,9.60
2010,05,25,03,42,9.60
2010,05,25,03,43,9.60
2010,05,25,03,44,9.60
2010,05,25,03,45,9.50
2010,05,25,03,46,9.50
2010,05,25,03,47,9.50
2010,05,25,03,48,9.50
2010,05,25,03,49,9.50
2010,05,25,03,50,9.50
2010,05,25,03,51,9.50
2010,05,25,03,52,9.50
2010,05,25,03,53,9.50
2010,05,25,03,54,9.50
2010,05,25,03,55,9.50
2010,05,25,03,56,9.50
2010,05,25,03,57,9.50
2010,05,25,03,58,9.50
2010,05,25,03,59,9.50
2010,05,25,04,00,9.50
2010,05,25,04,01,9.50
2010,05,25,04,02,9.50
2010,05,25,04,03,9.50
2010,05,25,04,04,9.50
2010,05,25,04,05,9.50
2010,05,25,04,06,9.50
2010,05,25,04,07,9.50
2010,05,25,04,08,9.50
2010,05,25,04,09,9.50
2010,05,25,04,10,9.50
2010,05,25,04,11,9.50
2010,05,25,04,12,9.50
2010,05,25,04,13,9.50
2010,05,25,04,14,9.50
2010,05,25,04,15,9.50
2010,05,25,04,16,9.50
2010,05,25,04,17,9.50
2010,05,25,04,18,9.50
2010,05,25,04,19,9.50
2010,05,25,04,20,9.50
2010,05,25,04,21,9.50
2010,05,25,04,22,9.50
2010,05,25,04,23,9.50
2010,05,25,04,24,9.50
2010,05,25,04,25,9.50
2010,05,25,04,26,9.40
2010,05,25,04,27,9.40
2010,05,25,04,28,9.40
2010,05,25,04,29,9.40
2010,05,25,04,30,9.40
2010,05,25,04,31,9.40
2010,05,25,04,32,9.40
2010,05,25,04,33,9.40
2010,05,25,04,34,9.40
2010,05,25,04,35,9.40
2010,05,25,04,36,9.40
2010,05,25,04,37,9.40
2010,05,25,04,38,9.40
2010,05,25,04,39,9.40
2010,05,25,04,40,9.40
2010,05,25,04,41,9.40
2010,05,25,04,42,9.40
2010,05,25,04,43,9.40
2010,05,25,04,44,9.40
2010,05,25,04,45,9.40
2010,05,25,04,46,9.40
2010,05,25,04,47,9.40
2010,05,25,04,48,9.40
2010,05,25,04,49,9.40
2010,05,25,04,50,9.40
2010,05,25,04,51,9.40
2010,05,25,04,52,9.40
2010,05,25,04,53,9.40
2010,05,25,04,54,9.40
2010,05,25,04,55,9.40
2010,05,25,04,56,9.40
2010,05,25,04,57,9.40
2010,05,25,04,58,9.40
2010,05,25,04,59,9.40
2010,05,25,05,00,9.40
2010,05,25,05,01,9.40
2010,05,25,05,02,9.40
2010,05,25,05,03,9.40
2010,05,25,05,04,9.40
2010,05,25,05,05,9.40
2010,05,25,05,06,9.40
2010,05,25,05,07,9.40
2010,05,25,05,08,9.40
2010,05,25,05,09,9.40
2010,05,25,05,10,9.40
2010,05,25,05,11,9.40
2010,05,25,05,12,9.40
2010,05,25,05,13,9.40
2010,05,25,05,14,9.40
2010,05,25,05,15,9.40
2010,05,25,05,16,9.40
2010,05,25,05,17,9.40
2010,05,25,05,18,9.40
2010,05,25,05,19,9.40
2010,05,25,05,20,9.40
2010,05,25,05,21,9.40
2010,05,25,05,22,9.40
2010,05,25,05,23,9.40
2010,05,25,05,24,9.40
2010,05,25,05,25,9.40
2010,05,25,05,26,9.40
2010,05,25,05,27,9.40
2010,05,25,05,28,9.40
2010,05,25,05,29,9.40
2010,05,25,05,30,9.40
2010,05,25,05,31,9.40
2010,05,25,05,32,9.40
2010,05,25,05,33,9.40
2010,05,25,05,34,9.40
2010,05,25,05,35,9.40
2010,05,25,05,36,9.40
2010,05,25,05,37,9.40
2010,05,25,05,38,9.40
2010,05,25,05,39,9.40
2010,05,25,05,40,9.40
2010,05,25,05,41,9.40
2010,05,25,05,42,9.40
2010,05,25,05,43,9.40
2010,05,25,05,44,9.40
2010,05,25,05,45,9.40
2010,05,25,05,46,9.40
2010,05,25,05,47,9.40
2010,05,25,05,48,9.40
2010,05,25,05,49,9.40
2010,05,25,05,50,9.40
2010,05,25,05,51,9.40
2010,05,25,05,52,9.40
2010,05,25,05,53,9.40
2010,05,25,05,54,9.40
2010,05,25,05,55,9.40
2010,05,25,05,56,9.40
2010,05,25,05,57,9.40
2010,05,25,05,58,9.40
2010,05,25,05,59,9.40
2010,05,25,06,00,9.40
2010,05,25,06,01,9.40
2010,05,25,06,02,9.40
2010,05,25,06,03,9.40
2010,05,25,06,04,9.40
2010,05,25,06,05,9.40
2010,05,25,06,06,9.40
2010,05,25,06,07,9.40
2010,05,25,06,08,9.40
2010,05,25,06,09,9.40
2010,05,25,06,10,9.40
2010,05,25,06,11,9.40
2010,05,25,06,12,9.40
2010,05,25,06,13,9.40
2010,05,25,06,14,9.40
2010,05,25,06,15,9.40
2010,05,25,06,16,9.40
2010,05,25,06,17,9.40
2010,05,25,06,18,9.40
2010,05,25,06,19,9.40
2010,05,25,06,20,9.40
2010,05,25,06,21,9.40
2010,05,25,06,22,9.40
2010,05,25,06,23,9.40
2010,05,25,06,24,9.40
2010,05,25,06,25,9.40
2010,05,25,06,26,9.40
2010,05,25,06,27,9.40
2010,05,25,06,28,9.40
2010,05,25,06,29,9.40
2010,05,25,06,30,9.40
2010,05,25,06,31,9.40
2010,05,25,06,32,9.40
2010,05,25,06,33,9.40
2010,05,25,06,34,9.40
2010,05,25,06,35,9.40
2010,05,25,06,36,9.40
2010,05,25,06,37,9.40
2010,05,25,06,38,9.50
2010,05,25,06,39,9.50
2010,05,25,06,40,9.50
2010,05,25,06,41,9.50
2010,05,25,06,42,9.50
2010,05,25,06,43,9.50
2010,05,25,06,44,9.50
2010,05,25,06,45,9.50
2010,05,25,06,46,9.50
2010,05,25,06,47,9.50
2010,05,25,06,48,9.60
2010,05,25,06,49,9.60
2010,05,25,06,50,9.60
2010,05,25,06,51,9.60
2010,05,25,06,52,9.60
2010,05,25,06,53,9.60
2010,05,25,06,54,9.60
2010,05,25,06,55,9.60
2010,05,25,06,56,9.60
2010,05,25,06,57,9.60
2010,05,25,06,58,9.60
2010,05,25,06,59,9.60
2010,05,25,07,00,9.60
2010,05,25,07,01,9.60
2010,05,25,07,02,9.60
2010,05,25,07,03,9.60
2010,05,25,07,04,9.60
2010,05,25,07,05,9.60
2010,05,25,07,06,9.50
2010,05,25,07,07,9.50
2010,05,25,07,08,9.50
2010,05,25,07,09,9.50
2010,05,25,07,10,9.60
2010,05,25,07,11,9.60
2010,05,25,07,12,9.60
2010,05,25,07,13,9.60
2010,05,25,07,14,9.60
2010,05,25,07,15,9.60
2010,05,25,07,16,9.60
2010,05,25,07,17,9.60
2010,05,25,07,18,9.60
2010,05,25,07,19,9.60
2010,05,25,07,20,9.60
2010,05,25,07,21,9.60
2010,05,25,07,22,9.60
2010,05,25,07,23,9.60
2010,05,25,07,24,9.60
2010,05,25,07,25,9.60
2010,05,25,07,26,9.60
2010,05,25,07,27,9.60
2010,05,25,07,28,9.60
2010,05,25,07,29,9.60
2010,05,25,07,30,9.60
2010,05,25,07,31,9.60
2010,05,25,07,32,9.60
2010,05,25,10,56,11.40
2010,05,25,10,57,11.40
2010,05,25,10,58,11.40
2010,05,25,10,59,11.40
2010,05,25,11,00,11.40
2010,05,25,11,01,11.40
2010,05,25,11,02,11.40
2010,05,25,11,03,11.40
2010,05,25,11,04,11.40
2010,05,25,11,05,11.40
2010,05,25,11,06,11.40
2010,05,25,11,07,11.40
2010,05,25,11,08,11.40
2010,05,25,11,09,11.50
2010,05,25,11,10,11.50
2010,05,25,11,11,11.50
2010,05,25,11,12,11.50
2010,05,25,11,13,11.50
2010,05,25,11,14,11.50
2010,05,25,11,15,11.50
2010,05,25,11,16,11.50
2010,05,25,11,17,11.60
2010,05,25,11,18,11.60
2010,05,25,11,19,11.60
2010,05,25,11,20,11.60
2010,05,25,11,21,11.60
2010,05,25,11,22,11.60
2010,05,25,11,23,11.60
2010,05,25,11,24,11.60
2010,05,25,11,25,11.60
2010,05,25,11,26,11.70
2010,05,25,11,27,11.70
2010,05,25,11,28,11.70
2010,05,25,11,29,11.70
2010,05,25,11,30,11.80
2010,05,25,11,31,11.80
2010,05,25,11,32,11.80
2010,05,25,11,33,11.80
2010,05,25,11,34,11.90
2010,05,25,11,35,11.90
2010,05,25,11,36,11.90
2010,05,25,11,37,12.00
2010,05,25,11,38,12.00
2010,05,25,11,39,12.10
2010,05,25,11,40,12.10
2010,05,25,11,41,12.10
2010,05,25,11,42,12.20
2010,05,25,11,43,12.20
2010,05,25,11,44,12.20
2010,05,25,11,45,12.20
2010,05,25,11,46,12.20
2010,05,25,11,47,12.30
2010,05,25,11,48,12.30
2010,05,25,11,49,12.30
2010,05,25,11,50,12.40
2010,05,25,11,51,12.40
2010,05,25,11,52,12.50
2010,05,25,11,53,12.50
2010,05,25,11,54,12.50
2010,05,25,11,55,12.40
2010,05,25,11,56,12.40
2010,05,25,11,57,12.40
2010,05,25,11,58,12.40
2010,05,25,11,59,12.40
2010,05,25,12,00,12.40
2010,05,25,12,01,12.40
2010,05,25,12,02,12.40
2010,05,25,12,03,12.40
2010,05,25,12,04,12.40
2010,05,25,12,05,12.50
2010,05,25,12,06,12.50
2010,05,25,12,07,12.50
2010,05,25,12,08,12.50
2010,05,25,12,09,12.50
2010,05,25,12,10,12.50
2010,05,25,12,11,12.50
2010,05,25,12,12,12.60
2010,05,25,12,13,12.60
2010,05,25,12,14,12.50
2010,05,25,12,15,12.50
2010,05,25,12,16,12.50
2010,05,25,12,17,12.60
2010,05,25,12,18,12.60
2010,05,25,12,19,12.60
2010,05,25,12,20,12.60
2010,05,25,12,21,12.60
2010,05,25,12,22,12.60
2010,05,25,12,23,12.60
2010,05,25,12,24,12.60
2010,05,25,12,25,12.60
2010,05,25,12,26,12.60
2010,05,25,12,27,12.60
2010,05,25,12,28,12.60
2010,05,25,12,29,12.60
2010,05,25,12,30,12.70
2010,05,25,12,31,12.70
2010,05,25,12,32,12.70
2010,05,25,12,33,12.80
2010,05,25,12,34,12.80
2010,05,25,12,35,12.80
2010,05,25,12,36,12.90
2010,05,25,12,37,12.90
2010,05,25,12,38,13.00
2010,05,25,12,39,13.00
2010,05,25,12,40,13.10
2010,05,25,12,41,13.10
2010,05,25,12,42,13.10
2010,05,25,12,43,13.10
2010,05,25,12,44,13.20
2010,05,25,12,45,13.20
2010,05,25,12,46,13.20
2010,05,25,12,47,13.20
2010,05,25,12,48,13.20
2010,05,25,12,49,13.20
2010,05,25,12,50,13.20
2010,05,25,12,51,13.30
2010,05,25,12,52,13.30
2010,05,25,12,53,13.30
2010,05,25,12,54,13.40
2010,05,25,12,55,13.40
2010,05,25,12,56,13.40
2010,05,25,12,57,13.40
2010,05,25,12,58,13.40
2010,05,25,12,59,13.40
2010,05,25,13,00,13.40
2010,05,25,13,01,13.50
2010,05,25,13,02,13.50
2010,05,25,13,03,13.50
2010,05,25,13,04,13.50
2010,05,25,13,05,13.50
2010,05,25,13,06,13.60
2010,05,25,13,07,13.60
2010,05,25,13,08,13.60
2010,05,25,13,09,13.60
2010,05,25,13,10,13.60
2010,05,25,13,11,13.70
2010,05,25,13,12,13.70
2010,05,25,13,13,13.70
2010,05,25,13,14,13.70
2010,05,25,13,15,13.70
2010,05,25,13,16,13.80
2010,05,25,13,17,13.80
2010,05,25,13,18,13.90
2010,05,25,13,19,13.90
2010,05,25,13,20,13.90
2010,05,25,13,21,14.00
2010,05,25,13,22,14.00
2010,05,25,13,23,14.00
2010,05,25,13,24,14.00
2010,05,25,13,25,14.00
2010,05,25,13,26,13.90
2010,05,25,13,27,13.90
2010,05,25,13,28,13.90
2010,05,25,13,29,13.80
2010,05,25,13,30,13.80
2010,05,25,13,31,13.80
2010,05,25,13,32,13.80
2010,05,25,13,33,13.80
2010,05,25,13,34,13.80
2010,05,25,13,35,13.80
2010,05,25,13,36,13.80
2010,05,25,13,37,13.80
2010,05,25,13,38,13.80
2010,05,25,13,39,13.80
2010,05,25,13,40,13.80
2010,05,25,13,41,13.80
2010,05,25,13,42,13.80
2010,05,25,13,43,13.80
2010,05,25,13,44,13.70
2010,05,25,13,45,13.70
2010,05,25,13,46,13.60
2010,05,25,13,47,13.60
2010,05,25,13,48,13.60
2010,05,25,13,49,13.50
2010,05,25,13,50,13.50
2010,05,25,13,51,13.50
2010,05,25,13,52,13.50
2010,05,25,13,53,13.50
2010,05,25,13,54,13.50
2010,05,25,13,55,13.40
2010,05,25,13,56,13.40
2010,05,25,13,57,13.40
2010,05,25,13,58,13.50
2010,05,25,13,59,13.50
2010,05,25,14,00,13.50
2010,05,25,14,01,13.60
2010,05,25,14,02,13.60
2010,05,25,14,03,13.60
2010,05,25,14,04,13.70
2010,05,25,14,05,13.70
2010,05,25,14,06,13.70
2010,05,25,14,07,13.80
2010,05,25,14,08,13.80
2010,05,25,14,09,13.80
2010,05,25,14,10,13.90
2010,05,25,14,11,13.90
2010,05,25,14,12,13.90
2010,05,25,14,13,14.00
2010,05,25,14,14,14.00
2010,05,25,14,15,14.10
2010,05,25,14,16,14.10
2010,05,25,14,17,14.10
2010,05,25,14,18,14.20
2010,05,25,14,19,14.20
2010,05,25,14,20,14.20
2010,05,25,14,21,14.20
2010,05,25,14,22,14.20
2010,05,25,14,23,14.20
2010,05,25,14,24,14.20
2010,05,25,14,25,14.10
2010,05,25,14,26,14.00
2010,05,25,14,27,13.90
2010,05,25,14,28,13.80
2010,05,25,14,29,13.80
2010,05,25,14,30,13.70
2010,05,25,14,31,13.60
2010,05,25,14,32,13.60
2010,05,25,14,33,13.50
2010,05,25,14,34,13.40
2010,05,25,14,35,13.30
2010,05,25,14,36,13.20
2010,05,25,14,37,13.10
2010,05,25,14,38,12.90
2010,05,25,14,39,12.80
2010,05,25,14,40,12.60
2010,05,25,14,41,12.50
2010,05,25,14,42,12.40
2010,05,25,14,43,12.30
2010,05,25,14,44,12.20
2010,05,25,14,45,12.10
2010,05,25,14,46,12.10
2010,05,25,14,47,12.00
2010,05,25,14,48,12.00
2010,05,25,14,49,12.00
2010,05,25,14,50,11.90
2010,05,25,14,51,11.90
2010,05,25,14,52,11.90
2010,05,25,14,53,11.90
2010,05,25,14,54,11.80
2010,05,25,14,55,11.80
2010,05,25,14,56,11.80
2010,05,25,14,57,11.80
2010,05,25,14,58,11.80
2010,05,25,14,59,11.80
2010,05,25,15,00,11.80
2010,05,25,15,01,11.80
2010,05,25,15,02,11.80
2010,05,25,15,03,11.80
2010,05,25,15,04,11.80
2010,05,25,15,05,11.80
2010,05,25,15,06,11.80
2010,05,25,15,07,11.80
2010,05,25,15,08,11.80
2010,05,25,15,09,11.80
2010,05,25,15,10,11.80
2010,05,25,15,11,11.80
2010,05,25,15,12,11.80
2010,05,25,15,13,11.80
2010,05,25,15,14,11.80
2010,05,25,15,15,11.80
2010,05,25,15,16,11.80
2010,05,25,15,17,11.90
2010,05,25,15,18,11.90
2010,05,25,15,19,11.90
2010,05,25,15,20,11.90
2010,05,25,15,21,11.90
2010,05,25,15,22,11.90
2010,05,25,15,23,12.00
2010,05,25,15,24,12.00
2010,05,25,15,25,12.00
2010,05,25,15,26,12.00
2010,05,25,15,27,12.00
2010,05,25,15,28,12.10
2010,05,25,15,29,12.10
2010,05,25,15,30,12.10
2010,05,25,15,31,12.10
2010,05,25,15,32,12.10
2010,05,25,15,33,12.10
2010,05,25,15,34,12.10
2010,05,25,15,35,12.10
2010,05,25,15,36,12.10
2010,05,25,15,37,12.10
2010,05,25,15,38,12.10
2010,05,25,15,39,12.10
2010,05,25,15,40,12.10
2010,05,25,15,41,12.10
2010,05,25,15,42,12.10
2010,05,25,15,43,12.20
2010,05,25,15,44,12.20
2010,05,25,15,45,12.30
2010,05,25,15,46,12.30
2010,05,25,15,47,12.40
2010,05,25,15,48,12.50
2010,05,25,15,49,12.60
2010,05,25,15,50,12.60
2010,05,25,15,51,12.70
2010,05,25,15,52,12.80
2010,05,25,15,53,12.90
2010,05,25,15,54,13.10
2010,05,25,15,55,13.20
2010,05,25,15,56,13.20
2010,05,25,15,57,13.30
2010,05,25,15,58,13.40
2010,05,25,15,59,13.40
2010,05,25,16,00,13.40
2010,05,25,16,01,13.40
2010,05,25,16,02,13.50
2010,05,25,16,03,13.50
2010,05,25,16,04,13.50
2010,05,25,16,05,13.50
2010,05,25,16,06,13.40
2010,05,25,16,07,13.40
2010,05,25,16,08,13.40
2010,05,25,16,09,13.30
2010,05,25,16,10,13.30
2010,05,25,16,11,13.20
2010,05,25,16,12,13.20
2010,05,25,16,13,13.20
2010,05,25,16,14,13.20
2010,05,25,16,15,13.10
2010,05,25,16,16,13.10
2010,05,25,16,17,13.20
2010,05,25,16,18,13.20
2010,05,25,16,19,13.20
2010,05,25,16,20,13.30
2010,05,25,16,21,13.40
2010,05,25,16,22,13.40
2010,05,25,16,23,13.40
2010,05,25,16,24,13.40
2010,05,25,16,25,13.40
2010,05,25,16,26,13.40
2010,05,25,16,27,13.40
2010,05,25,16,28,13.40
2010,05,25,16,29,13.30
2010,05,25,16,30,13.30
2010,05,25,16,31,13.30
2010,05,25,16,32,13.20
2010,05,25,16,33,13.20
2010,05,25,16,34,13.20
2010,05,25,16,35,13.10
2010,05,25,16,36,13.00
2010,05,25,16,37,12.90
2010,05,25,16,38,12.80
2010,05,25,16,39,12.80
2010,05,25,16,40,12.80
2010,05,25,16,41,12.70
2010,05,25,16,42,12.70
2010,05,25,16,43,12.70
2010,05,25,16,44,12.70
2010,05,25,16,45,12.70
2010,05,25,16,46,12.60
2010,05,25,16,47,12.60
2010,05,25,16,48,12.60
2010,05,25,16,49,12.60
2010,05,25,16,50,12.60
2010,05,25,16,51,12.60
2010,05,25,16,52,12.60
2010,05,25,16,53,12.60
2010,05,25,16,54,12.60
2010,05,25,16,55,12.50
2010,05,25,16,56,12.50
2010,05,25,16,57,12.40
2010,05,25,16,58,12.40
2010,05,25,16,59,12.40
2010,05,25,17,00,12.40
2010,05,25,17,01,12.40
2010,05,25,17,02,12.40
2010,05,25,17,03,12.40
2010,05,25,17,04,12.40
2010,05,25,17,05,12.40
2010,05,25,17,06,12.50
2010,05,25,17,07,12.50
2010,05,25,17,08,12.50
2010,05,25,17,09,12.60
2010,05,25,17,10,12.60
2010,05,25,17,11,12.60
2010,05,25,17,12,12.60
2010,05,25,17,13,12.60
2010,05,25,17,14,12.60
2010,05,25,17,15,12.60
2010,05,25,17,16,12.60
2010,05,25,17,17,12.60
2010,05,25,17,18,12.60
2010,05,25,17,19,12.70
2010,05,25,17,20,12.70
2010,05,25,17,21,12.70
2010,05,25,17,22,12.80
2010,05,25,17,23,12.80
2010,05,25,17,24,12.80
2010,05,25,17,25,12.90
2010,05,25,17,26,12.90
2010,05,25,17,27,12.90
2010,05,25,17,28,13.00
2010,05,25,17,29,13.00
2010,05,25,17,30,13.00
2010,05,25,17,31,13.10
2010,05,25,17,32,13.10
2010,05,25,17,33,13.20
2010,05,25,17,34,13.20
2010,05,25,17,35,13.20
2010,05,25,17,36,13.30
2010,05,25,17,37,13.40
2010,05,25,17,38,13.40
2010,05,25,17,39,13.50
2010,05,25,17,40,13.60
2010,05,25,17,41,13.80
2010,05,25,17,42,13.90
2010,05,25,17,43,14.00
2010,05,25,17,44,14.20
2010,05,25,17,45,14.20
2010,05,25,17,46,14.30
2010,05,25,17,47,14.40
2010,05,25,17,48,14.50
2010,05,25,17,49,14.60
2010,05,25,17,50,14.60
2010,05,25,17,51,14.70
2010,05,25,17,52,14.80
2010,05,25,17,53,14.90
2010,05,25,17,54,15.00
2010,05,25,17,55,15.00
2010,05,25,17,56,15.10
2010,05,25,17,57,15.10
2010,05,25,17,58,15.10
2010,05,25,17,59,15.10
2010,05,25,18,00,15.00
2010,05,25,18,01,15.00
2010,05,25,18,02,15.00
2010,05,25,18,03,14.90
2010,05,25,18,04,14.90
2010,05,25,18,05,14.80
2010,05,25,18,06,14.80
2010,05,25,18,07,14.60
2010,05,25,18,08,14.50
2010,05,25,18,09,14.40
2010,05,25,18,10,14.30
2010,05,25,18,11,14.30
2010,05,25,18,12,14.20
2010,05,25,18,13,14.20
2010,05,25,18,14,14.20
2010,05,25,18,15,14.20
2010,05,25,18,16,14.30
2010,05,25,18,17,14.30
2010,05,25,18,18,14.30
2010,05,25,18,19,14.30
2010,05,25,18,20,14.30
2010,05,25,18,21,14.30
2010,05,25,18,22,14.30
2010,05,25,18,23,14.30
2010,05,25,18,24,14.20
2010,05,25,18,25,14.20
2010,05,25,18,26,14.20
2010,05,25,18,27,14.10
2010,05,25,18,28,14.10
2010,05,25,18,29,14.00
2010,05,25,18,30,13.90
2010,05,25,18,31,13.90
2010,05,25,18,32,13.80
2010,05,25,18,33,13.80
2010,05,25,18,34,13.70
2010,05,25,18,35,13.60
2010,05,25,18,36,13.60
2010,05,25,18,37,13.50
2010,05,25,18,38,13.50
2010,05,25,18,39,13.40
2010,05,25,18,40,13.40
2010,05,25,18,41,13.30
2010,05,25,18,42,13.30
2010,05,25,18,43,13.30
2010,05,25,18,44,13.30
2010,05,25,18,45,13.30
2010,05,25,18,46,13.30
2010,05,25,18,47,13.30
2010,05,25,18,48,13.30
2010,05,25,18,49,13.30
2010,05,25,18,50,13.30
2010,05,25,18,51,13.30
2010,05,25,18,52,13.30
2010,05,25,18,53,13.30
2010,05,25,18,54,13.30
2010,05,25,18,55,13.30
2010,05,25,18,56,13.30
2010,05,25,18,57,13.30
2010,05,25,18,58,13.20
2010,05,25,18,59,13.20
2010,05,25,19,00,13.20
2010,05,25,19,01,13.20
2010,05,25,19,02,13.10
2010,05,25,19,03,13.10
2010,05,25,19,04,13.00
2010,05,25,19,05,13.00
2010,05,25,19,06,13.00
2010,05,25,19,07,12.90
2010,05,25,19,08,12.90
2010,05,25,19,09,12.90
2010,05,25,19,10,12.90
2010,05,25,19,11,12.80
2010,05,25,19,12,12.80
2010,05,25,19,13,12.80
2010,05,25,19,14,12.80
2010,05,25,19,15,12.80
2010,05,25,19,16,12.70
2010,05,25,19,17,12.70
2010,05,25,19,18,12.70
2010,05,25,19,19,12.70
2010,05,25,19,20,12.70
2010,05,25,19,21,12.70
2010,05,25,19,22,12.70
2010,05,25,19,23,12.70
2010,05,25,19,24,12.70
2010,05,25,19,25,12.70
2010,05,25,19,26,12.70
2010,05,25,19,27,12.70
2010,05,25,19,28,12.70
2010,05,25,19,29,12.70
2010,05,25,19,30,12.70
2010,05,25,19,31,12.70
2010,05,25,19,32,12.70
2010,05,25,19,33,12.70
2010,05,25,19,34,12.70
2010,05,25,19,35,12.70
2010,05,25,19,36,12.60
2010,05,25,19,37,12.60
2010,05,25,19,38,12.60
2010,05,25,19,39,12.60
2010,05,25,19,40,12.60
2010,05,25,19,41,12.60
2010,05,25,19,42,12.60
2010,05,25,19,43,12.60
2010,05,25,19,44,12.50
2010,05,25,19,45,12.50
2010,05,25,19,46,12.50
2010,05,25,19,47,12.50
2010,05,25,19,48,12.50
2010,05,25,19,49,12.50
2010,05,25,19,50,12.50
2010,05,25,19,51,12.50
2010,05,25,19,52,12.50
2010,05,25,19,53,12.50
2010,05,25,19,54,12.50
2010,05,25,19,55,12.50
2010,05,25,19,56,12.50
2010,05,25,19,57,12.50
2010,05,25,19,58,12.50
2010,05,25,19,59,12.50
2010,05,25,20,00,12.50
2010,05,25,20,01,12.50
2010,05,25,20,02,12.50
2010,05,25,20,03,12.50
2010,05,25,20,04,12.50
2010,05,25,20,05,12.50
2010,05,25,20,06,12.50
2010,05,25,20,07,12.50
2010,05,25,20,08,12.50
2010,05,25,20,09,12.50
2010,05,25,20,10,12.50
2010,05,25,20,11,12.40
2010,05,25,20,12,12.50
2010,05,25,20,13,12.40
2010,05,25,20,14,12.40
2010,05,25,20,15,12.40
2010,05,25,20,16,12.40
2010,05,25,20,17,12.40
2010,05,25,20,18,12.40
2010,05,25,20,19,12.40
2010,05,25,20,20,12.40
2010,05,25,20,21,12.40
2010,05,25,20,22,12.40
2010,05,25,20,23,12.40
2010,05,25,20,24,12.40
2010,05,25,20,25,12.40
2010,05,25,20,26,12.40
2010,05,25,20,27,12.30
2010,05,25,20,28,12.30
2010,05,25,20,29,12.30
2010,05,25,20,30,12.30
2010,05,25,20,31,12.30
2010,05,25,20,32,12.30
2010,05,25,20,33,12.30
2010,05,25,20,34,12.20
2010,05,25,20,35,12.20
2010,05,25,20,36,12.20
2010,05,25,20,37,12.20
2010,05,25,20,38,12.20
2010,05,25,20,39,12.20
2010,05,25,20,40,12.20
2010,05,25,20,41,12.20
2010,05,25,20,42,12.20
2010,05,25,20,43,12.20
2010,05,25,20,44,12.10
2010,05,25,20,45,12.10
2010,05,25,20,46,12.10
2010,05,25,20,47,12.10
2010,05,25,20,48,12.10
2010,05,25,20,49,12.10
2010,05,25,20,50,12.00
2010,05,25,20,51,12.00
2010,05,25,20,52,12.00
2010,05,25,20,53,12.00
2010,05,25,20,54,12.00
2010,05,25,20,55,11.90
2010,05,25,20,56,11.90
2010,05,25,20,57,11.90
2010,05,25,20,58,11.90
2010,05,25,20,59,11.90
2010,05,25,21,00,11.90
2010,05,25,21,01,11.80